FW2985 Weather Reports


Display with metric or nautical units.
time (UTC)temp
F
wind
direction
speed
MPH
gust
MPH
rain 1hr
in
rain 24hr
in
rain mn
in
humidity
%
barometer
mb
20260504081520 38 0.0 0.0 0.03 0.31 0.08 88 978.0
20260504050017 40 0.0 0.0 0.00 0.23 0.00 89 975.9
20260504044507 41 0.0 0.0 0.00 0.23 0.00 88 976.3
20260504043003 41 0.0 0.0 0.00 0.23 0.00 87 976.5
20260504041559 42 0.0 0.0 0.00 0.23 0.00 86 976.9
20260504040055 42 0.0 0.0 0.00 0.23 0.00 84 977.3
20260504034550 43 0.0 0.0 0.00 0.23 0.00 84 977.8
20260504033046 43 0.0 0.0 0.00 0.23 0.00 84 978.1
20260504031541 43 0.0 0.0 0.00 0.23 0.00 84 978.2
20260504030036 43 0.0 0.0 0.00 0.23 0.00 84 978.2
20260504024536 43 0.0 0.0 0.00 0.23 0.23 85 978.2
20260504023037 43 0.0 0.0 0.00 0.23 0.23 84 978.6
20260504021534 42 0.0 0.0 0.00 0.23 0.23 85 979.9
20260504020048 42 0.0 0.0 0.00 0.23 0.23 85 979.8
20260504014548 43 0.0 0.0 0.00 0.23 0.23 83 979.4
20260504013043 43 0.0 0.0 0.00 0.23 0.23 84 978.8
20260504011531 43 0.0 0.0 0.00 0.23 0.23 85 978.7
20260504010031 43 0.0 0.0 0.01 0.23 0.23 86 979.9
20260504004534 43 0.0 0.0 0.03 0.23 0.23 86 979.0
20260504003029 42 0.0 0.0 0.05 0.23 0.23 87 979.5
20260504001527 41 0.0 0.0 0.05 0.23 0.23 89 981.5
20260504000026 41 0.0 0.0 0.04 0.22 0.22 89 982.5
20260503234523 41 0.0 0.0 0.02 0.20 0.20 89 984.8
20260503233022 41 0.0 0.0 0.02 0.18 0.18 88 987.6
20260503231519 41 0.0 0.0 0.04 0.18 0.18 88 989.1
20260503230014 41 0.0 0.0 0.06 0.18 0.18 88 990.9
20260503224511 39 0.0 0.0 0.06 0.18 0.18 88 992.4
20260503223009 39 0.0 0.0 0.05 0.16 0.16 88 993.5
20260503221508 39 0.0 0.0 0.04 0.14 0.14 89 994.1
20260503220004 39 0.0 0.0 0.03 0.12 0.12 89 995.3
20260503214503 40 0.0 0.0 0.03 0.12 0.12 89 995.0
20260503213007 41 0.0 0.0 0.03 0.11 0.11 89 995.5
20260503211600 42 0.0 0.0 0.03 0.10 0.10 88 995.8
20260503210059 42 0.0 0.0 0.03 0.09 0.09 88 996.1
20260503204558 41 0.0 0.0 0.05 0.09 0.09 88 996.7
20260503203111 41 0.0 0.0 0.05 0.08 0.08 88 997.9
20260503201553 42 0.0 0.0 0.07 0.07 0.07 87 998.5
20260503200050 42 0.0 0.0 0.05 0.05 0.05 84 999.3
20260503194547 43 0.0 0.0 0.04 0.04 0.04 83 999.7
20260503193043 44 0.0 0.0 0.03 0.03 0.03 78 1001.1
20260503191547 45 0.0 0.0 0.00 0.00 0.00 71 1002.3
20260503190042 47 0.0 0.0 0.00 0.00 0.00 60 1003.2
20260503184536 48 0.0 0.0 0.00 0.00 0.00 55 1003.4
20260503183033 50 0.0 0.0 0.00 0.00 0.00 48 1004.1
20260503181531 51 0.0 0.0 0.00 0.00 0.00 40 1004.6
20260503180034 52 0.0 0.0 0.00 0.00 0.00 36 1005.0
20260503174528 52 99 0.0 0.0 0.00 0.00 0.00 37 1004.8
20260503173026 52 0.0 0.0 0.00 0.00 0.00 36 1005.6
20260503171524 52 0.0 0.0 0.00 0.00 0.00 35 1006.0